| time (UTC) | temp F | wind direction | speed MPH | gust MPH | rain 1hr in | rain 24hr in | rain mn in | humidity % | barometer mb |
| 20260902141531 | 0 | 0.0 | 0.0 | 0.00 | 0.00 | 0.00 | 1017.2 | ||
| 20260902140028 | 35 | 172 | 0.0 | 0.0 | 0.00 | 0.00 | 0.00 | 92 | 1017.3 |
| 20260902134526 | 34 | 334 | 0.0 | 0.0 | 0.00 | 0.00 | 0.00 | 92 | 1017.0 |
| 20260902133032 | 34 | 357 | 0.0 | 0.0 | 0.00 | 0.00 | 0.00 | 91 | 1017.1 |
| 20260902131524 | 34 | 307 | 0.0 | 0.0 | 0.00 | 0.00 | 0.00 | 91 | 1017.0 |
| 20260902130022 | 34 | 72 | 0.0 | 0.0 | 0.00 | 0.00 | 0.00 | 91 | 1016.7 |
| 20260902124525 | 34 | 160 | 0.0 | 0.0 | 0.00 | 0.00 | 0.00 | 90 | 1016.7 |
| 20260902123022 | 35 | 169 | 0.0 | 0.0 | 0.00 | 0.00 | 0.00 | 90 | 1016.5 |
| 20260902121521 | 35 | 217 | 0.0 | 0.0 | 0.00 | 0.00 | 0.00 | 90 | 1016.6 |
| 20260902120023 | 34 | 72 | 0.0 | 0.0 | 0.00 | 0.00 | 0.00 | 90 | 1016.7 |
| 20260902114533 | 34 | 59 | 0.0 | 0.0 | 0.00 | 0.00 | 0.00 | 90 | 1016.6 |
| 20260902113017 | 34 | 45 | 0.0 | 0.0 | 0.00 | 0.00 | 0.00 | 90 | 1016.7 |
| 20260902111517 | 34 | 132 | 0.0 | 0.0 | 0.00 | 0.00 | 0.00 | 89 | 1016.6 |
| 20260902110017 | 34 | 175 | 0.0 | 0.0 | 0.00 | 0.00 | 0.00 | 89 | 1016.6 |
| 20260902104519 | 34 | 338 | 0.0 | 0.0 | 0.00 | 0.00 | 0.00 | 89 | 1016.4 |
| 20260902103012 | 35 | 188 | 0.0 | 0.0 | 0.00 | 0.00 | 0.00 | 88 | 1016.2 |
| 20260902101512 | 35 | 46 | 0.0 | 0.0 | 0.00 | 0.00 | 0.00 | 88 | 1016.0 |
| 20260902100010 | 36 | 41 | 0.0 | 0.0 | 0.00 | 0.00 | 0.00 | 88 | 1016.1 |
| 20260902094610 | 36 | 3 | 0.0 | 0.0 | 0.00 | 0.00 | 0.00 | 87 | 1016.3 |
| 20260902093008 | 36 | 3 | 0.0 | 0.0 | 0.00 | 0.00 | 0.00 | 86 | 1016.3 |
| 20260902091507 | 36 | 225 | 0.0 | 0.0 | 0.00 | 0.00 | 0.00 | 87 | 1016.6 |
| 20260902090010 | 36 | 198 | 0.0 | 0.0 | 0.00 | 0.00 | 0.00 | 87 | 1016.4 |
| 20260902084506 | 36 | 58 | 0.0 | 0.0 | 0.00 | 0.00 | 0.00 | 87 | 1016.4 |
| 20260902083006 | 36 | 289 | 0.0 | 0.0 | 0.00 | 0.00 | 0.00 | 87 | 1016.5 |
| 20260902081504 | 36 | 75 | 0.0 | 0.0 | 0.00 | 0.00 | 0.00 | 87 | 1016.5 |
| 20260902080002 | 36 | 81 | 0.0 | 0.0 | 0.00 | 0.00 | 0.00 | 87 | 1016.3 |
| 20260902074600 | 36 | 84 | 0.0 | 0.0 | 0.00 | 0.00 | 0.00 | 86 | 1016.0 |
| 20260902073058 | 37 | 184 | 0.0 | 0.0 | 0.00 | 0.00 | 0.00 | 86 | 1016.1 |
| 20260902071555 | 38 | 307 | 0.0 | 0.0 | 0.00 | 0.00 | 0.00 | 86 | 1016.1 |
| 20260902070053 | 39 | 13 | 0.0 | 0.0 | 0.00 | 0.00 | 0.00 | 86 | 1015.8 |
| 20260902064550 | 39 | 201 | 0.0 | 0.0 | 0.00 | 0.00 | 0.00 | 85 | 1015.8 |
| 20260902063101 | 39 | 107 | 0.0 | 0.0 | 0.00 | 0.00 | 0.00 | 86 | 1015.5 |
| 20260902061611 | 39 | 193 | 0.0 | 0.0 | 0.00 | 0.00 | 0.00 | 87 | 1015.4 |
| 20260902060052 | 39 | 171 | 0.0 | 0.0 | 0.00 | 0.00 | 0.00 | 89 | 1015.3 |
| 20260902054545 | 38 | 148 | 0.0 | 0.0 | 0.00 | 0.00 | 0.00 | 89 | 1015.1 |
| 20260902053043 | 39 | 228 | 0.0 | 0.0 | 0.00 | 0.00 | 0.00 | 89 | 1015.1 |
| 20260902051540 | 39 | 270 | 0.0 | 0.0 | 0.00 | 0.00 | 0.00 | 87 | 1015.0 |
| 20260902050040 | 40 | 28 | 0.0 | 0.0 | 0.00 | 0.00 | 0.00 | 87 | 1014.8 |
| 20260902044539 | 40 | 279 | 0.0 | 0.0 | 0.00 | 0.00 | 0.00 | 85 | 1014.9 |
| 20260902043040 | 40 | 34 | 0.0 | 0.0 | 0.00 | 0.00 | 0.00 | 85 | 1014.7 |
| 20260902041547 | 41 | 146 | 0.0 | 0.0 | 0.00 | 0.00 | 0.00 | 83 | 1014.5 |
| 20260902040034 | 42 | 254 | 0.0 | 0.0 | 0.00 | 0.00 | 0.00 | 83 | 1014.3 |
| 20260902034532 | 43 | 165 | 0.0 | 0.0 | 0.00 | 0.00 | 0.00 | 81 | 1014.2 |
| 20260902033128 | 43 | 86 | 0.0 | 1.0 | 0.00 | 0.00 | 0.00 | 80 | 1014.0 |
| 20260902031526 | 44 | 217 | 0.0 | 1.0 | 0.00 | 0.00 | 0.00 | 78 | 1013.6 |
| 20260902030024 | 45 | 182 | 0.0 | 1.0 | 0.00 | 0.00 | 0.00 | 76 | 1013.4 |
| 20260902024523 | 46 | 77 | 0.0 | 1.0 | 0.00 | 0.00 | 0.00 | 74 | 1013.2 |
| 20260902023023 | 46 | 308 | 0.0 | 1.0 | 0.00 | 0.00 | 0.00 | 72 | 1013.2 |
| 20260902021522 | 47 | 45 | 0.0 | 1.0 | 0.00 | 0.00 | 0.00 | 70 | 1013.0 |
| 20260902020041 | 48 | 346 | 0.0 | 1.0 | 0.00 | 0.00 | 0.00 | 67 | 1012.9 |
| 20260902014521 | 49 | 177 | 0.0 | 2.0 | 0.00 | 0.00 | 0.00 | 65 | 1012.8 |
| 20260902013021 | 51 | 293 | 0.0 | 3.0 | 0.00 | 0.00 | 0.00 | 62 | 1012.7 |
| 20260902011520 | 51 | 4 | 0.0 | 3.0 | 0.00 | 0.00 | 0.00 | 62 | 1012.7 |
| 20260902010028 | 52 | 184 | 0.0 | 3.0 | 0.00 | 0.00 | 0.00 | 60 | 1012.7 |
| 20260902004519 | 53 | 332 | 0.0 | 5.0 | 0.00 | 0.00 | 0.00 | 58 | 1012.6 |
| 20260902003018 | 54 | 252 | 0.0 | 3.0 | 0.00 | 0.00 | 0.00 | 58 | 1012.6 |
| 20260902001519 | 55 | 285 | 0.0 | 3.0 | 0.00 | 0.00 | 0.00 | 57 | 1012.5 |
| 20260902000026 | 54 | 58 | 0.0 | 3.0 | 0.00 | 0.00 | 0.00 | 59 | 1012.4 |
| 20260901234518 | 54 | 318 | 0.0 | 4.0 | 0.00 | 0.00 | 0.00 | 59 | 1012.5 |
| 20260901233017 | 55 | 354 | 0.0 | 5.0 | 0.00 | 0.00 | 0.00 | 57 | 1012.6 |
| 20260901231519 | 55 | 207 | 0.0 | 8.0 | 0.00 | 0.00 | 0.00 | 55 | 1012.5 |
| 20260901230014 | 56 | 183 | 1.0 | 4.0 | 0.00 | 0.00 | 0.00 | 52 | 1012.7 |
| 20260901224519 | 57 | 264 | 0.0 | 4.0 | 0.00 | 0.00 | 0.00 | 53 | 1012.6 |
| 20260901223014 | 57 | 134 | 0.0 | 4.0 | 0.00 | 0.00 | 0.00 | 52 | 1012.6 |
| 20260901221521 | 57 | 111 | 0.0 | 4.0 | 0.00 | 0.00 | 0.00 | 50 | 1012.7 |
| 20260901220016 | 57 | 180 | 1.0 | 8.0 | 0.00 | 0.00 | 0.00 | 51 | 1012.7 |
| 20260901214511 | 58 | 182 | 1.0 | 8.0 | 0.00 | 0.00 | 0.00 | 49 | 1012.7 |
| 20260901213012 | 58 | 167 | 0.0 | 3.0 | 0.00 | 0.00 | 0.00 | 48 | 1012.7 |
| 20260901211511 | 59 | 84 | 0.0 | 6.0 | 0.00 | 0.00 | 0.00 | 45 | 1012.6 |
| 20260901210022 | 59 | 260 | 1.0 | 8.0 | 0.00 | 0.00 | 0.00 | 41 | 1012.5 |
| 20260901204515 | 60 | 99 | 1.0 | 8.0 | 0.00 | 0.00 | 0.00 | 36 | 1012.7 |
| 20260901203017 | 60 | 181 | 1.0 | 8.0 | 0.00 | 0.00 | 0.00 | 36 | 1012.6 |
| 20260901201507 | 60 | 136 | 1.0 | 7.0 | 0.00 | 0.00 | 0.00 | 36 | 1012.7 |
| 20260901200008 | 60 | 2 | 0.0 | 12.0 | 0.00 | 0.00 | 0.00 | 37 | 1012.7 |
| 20260901194505 | 60 | 12 | 0.0 | 7.0 | 0.00 | 0.00 | 0.00 | 34 | 1012.9 |
| 20260901193004 | 60 | 206 | 1.0 | 7.0 | 0.00 | 0.00 | 0.00 | 35 | 1013.0 |
| 20260901191503 | 59 | 226 | 2.0 | 9.0 | 0.00 | 0.00 | 0.00 | 36 | 1013.0 |
| 20260901190114 | 59 | 278 | 1.0 | 11.0 | 0.00 | 0.00 | 0.00 | 36 | 1012.8 |
| 20260901184701 | 59 | 47 | 1.0 | 6.0 | 0.00 | 0.00 | 0.00 | 37 | 1013.0 |
| 20260901183059 | 60 | 262 | 2.0 | 6.0 | 0.00 | 0.00 | 0.00 | 38 | 1012.8 |
| 20260901181600 | 60 | 281 | 1.0 | 5.0 | 0.00 | 0.00 | 0.00 | 40 | 1012.8 |
| 20260901180055 | 59 | 334 | 1.0 | 6.0 | 0.00 | 0.00 | 0.00 | 40 | 1012.7 |
| 20260901174608 | 59 | 143 | 1.0 | 7.0 | 0.00 | 0.00 | 0.00 | 43 | 1012.6 |
| 20260901173053 | 58 | 122 | 0.0 | 7.0 | 0.00 | 0.00 | 0.00 | 46 | 1012.5 |
| 20260901171556 | 58 | 255 | 2.0 | 7.0 | 0.00 | 0.00 | 0.00 | 47 | 1012.6 |
| 20260901170056 | 58 | 51 | 0.0 | 5.0 | 0.00 | 0.00 | 0.00 | 46 | 1012.5 |
| 20260901164551 | 58 | 181 | 1.0 | 5.0 | 0.00 | 0.00 | 0.00 | 42 | 1012.4 |
| 20260901163050 | 58 | 198 | 1.0 | 7.0 | 0.00 | 0.00 | 0.00 | 40 | 1012.3 |
| 20260901161549 | 58 | 20 | 0.0 | 3.0 | 0.00 | 0.00 | 0.00 | 42 | 1012.3 |
| 20260901160044 | 57 | 13 | 1.0 | 5.0 | 0.00 | 0.00 | 0.00 | 42 | 1012.3 |
| 20260901154543 | 57 | 81 | 0.0 | 6.0 | 0.00 | 0.00 | 0.00 | 42 | 1012.2 |
| 20260901153044 | 56 | 166 | 1.0 | 4.0 | 0.00 | 0.00 | 0.00 | 43 | 1012.1 |
| 20260901151538 | 55 | 7 | 0.0 | 1.0 | 0.00 | 0.00 | 0.00 | 49 | 1012.2 |
| 20260901150035 | 51 | 159 | 0.0 | 0.0 | 0.00 | 0.00 | 0.00 | 57 | 1012.4 |
| 20260901144530 | 47 | 122 | 0.0 | 0.0 | 0.00 | 0.00 | 0.00 | 69 | 1012.2 |
| 20260901143034 | 45 | 111 | 0.0 | 1.0 | 0.00 | 0.00 | 0.00 | 72 | 1012.2 |